This is the latest recevied weather packets stored in our database for station/object WC4PEM-8. If no packets are shown the sender has not sent any weather packets the latest 10 day(s).
| Time | Temp. | Humidity | Pressure | Rain* | Wind** | Luminosity | Snow |
|---|---|---|---|---|---|---|---|
| 1777482176 | 30° C | 55% | 1015.8 hPa | 0 mm | - | - | - |
| 1777482075 | 30° C | 55% | 1015.8 hPa | 0 mm | - | - | - |
| 1777481775 | 29.44° C | 55% | 1015.8 hPa | 0 mm | - | - | - |
| 1777481475 | 29.44° C | 56% | 1015.7 hPa | 0 mm | - | - | - |
| 1777481175 | 29.44° C | 56% | 1016 hPa | 0 mm | - | - | - |
| 1777480875 | 29.44° C | 57% | 1016.2 hPa | 0 mm | - | - | - |
| 1777480575 | 29.44° C | 55% | 1016.3 hPa | 0 mm | - | - | - |
| 1777480275 | 28.89° C | 55% | 1016.4 hPa | 0 mm | - | - | - |
| 1777479975 | 28.89° C | 55% | 1016.6 hPa | 0 mm | - | - | - |
| 1777479893 | 28.89° C | 53% | 1016.6 hPa | 0 mm | - | - | - |
| 1777479675 | 28.89° C | 53% | 1016.6 hPa | 0 mm | - | - | - |
| 1777479375 | 28.89° C | 56% | 1016.8 hPa | 0 mm | - | - | - |
| 1777479176 | 28.89° C | 56% | 1017.1 hPa | 0 mm | - | - | - |
| 1777479075 | 28.89° C | 56% | 1017.1 hPa | 0 mm | - | - | - |
| 1777478775 | 28.89° C | 56% | 1017.1 hPa | 0 mm | - | - | - |
| 1777478475 | 28.33° C | 57% | 1017.3 hPa | 0 mm | - | - | - |
| 1777478175 | 27.78° C | 60% | 1017.4 hPa | 0 mm | - | - | - |
| 1777478032 | 27.78° C | 60% | 1017.6 hPa | 0 mm | - | - | - |
| 1777477875 | 27.78° C | 60% | 1017.6 hPa | 0 mm | - | - | - |
| 1777477575 | 27.78° C | 60% | 1017.5 hPa | 0 mm | - | - | - |
| 1777477275 | 27.78° C | 59% | 1017.5 hPa | 0 mm | - | - | - |
| 1777477090 | 27.22° C | 61% | 1017.3 hPa | 0 mm | - | - | - |
| 1777476975 | 27.22° C | 61% | 1017.3 hPa | 0 mm | - | - | - |
| 1777476806 | 27.22° C | 61% | 1017.3 hPa | 0 mm | - | - | - |
| 1777476675 | 27.22° C | 61% | 1017.3 hPa | 0 mm | - | - | - |
* Rain latest hour (hover to see other rain measurements)
** Current wind speed in m/s (hover to see current wind gust speed)